| time (UTC) | temp F | wind direction | speed knots | gust knots | rain 1hr in | rain 24hr in | rain mn in | humidity % | barometer mb |
| 20260510065017 | 54 | 285 | 3.5 | 8.7 | 0.00 | 0.00 | 0.00 | 88 | 1016.6 |
| 20260510064516 | 54 | 240 | 2.6 | 7.8 | 0.00 | 0.00 | 0.00 | 88 | 1016.6 |
| 20260510064017 | 54 | 234 | 2.6 | 10.4 | 0.00 | 0.00 | 0.00 | 88 | 1016.6 |
| 20260510063516 | 54 | 221 | 3.5 | 11.3 | 0.00 | 0.00 | 0.00 | 87 | 1016.6 |
| 20260510063020 | 54 | 189 | 2.6 | 9.6 | 0.00 | 0.00 | 0.00 | 87 | 1016.7 |
| 20260510063016 | 54 | 240 | 3.5 | 11.3 | 0.00 | 0.00 | 0.00 | 87 | 1016.6 |
| 20260510062015 | 54 | 276 | 2.6 | 9.6 | 0.00 | 0.00 | 0.00 | 87 | 1016.7 |
| 20260510061516 | 54 | 250 | 2.6 | 8.7 | 0.00 | 0.00 | 0.00 | 87 | 1016.6 |
| 20260510061015 | 55 | 248 | 1.7 | 8.7 | 0.00 | 0.00 | 0.00 | 86 | 1016.8 |
| 20260510060515 | 55 | 192 | 1.7 | 7.0 | 0.00 | 0.00 | 0.00 | 86 | 1016.6 |
| 20260510060016 | 55 | 225 | 2.6 | 7.8 | 0.00 | 0.00 | 0.00 | 85 | 1016.6 |
| 20260510055515 | 55 | 208 | 2.6 | 7.8 | 0.00 | 0.00 | 0.00 | 85 | 1016.6 |
| 20260510055013 | 55 | 268 | 2.6 | 7.8 | 0.00 | 0.00 | 0.00 | 85 | 1016.6 |
| 20260510054518 | 56 | 236 | 2.6 | 7.8 | 0.00 | 0.00 | 0.00 | 84 | 1016.3 |
| 20260510054514 | 55 | 269 | 1.7 | 7.0 | 0.00 | 0.00 | 0.00 | 84 | 1016.4 |
| 20260510054128 | 56 | 257 | 2.6 | 7.8 | 0.00 | 0.00 | 0.00 | 83 | 1016.3 |
| 20260510053013 | 56 | 255 | 1.7 | 6.1 | 0.00 | 0.00 | 0.00 | 82 | 1016.3 |
| 20260510052513 | 56 | 245 | 1.7 | 5.2 | 0.00 | 0.00 | 0.00 | 82 | 1016.2 |
| 20260510052013 | 57 | 238 | 1.7 | 5.2 | 0.00 | 0.00 | 0.00 | 81 | 1016.2 |
| 20260510051517 | 57 | 225 | 0.9 | 6.1 | 0.00 | 0.00 | 0.00 | 79 | 1016.1 |
| 20260510051513 | 57 | 270 | 0.9 | 6.1 | 0.00 | 0.00 | 0.00 | 80 | 1016.1 |
| 20260510050518 | 58 | 242 | 2.6 | 7.0 | 0.00 | 0.00 | 0.00 | 77 | 1015.8 |
| 20260510050513 | 58 | 268 | 1.7 | 6.1 | 0.00 | 0.00 | 0.00 | 79 | 1016.1 |
| 20260510050012 | 58 | 253 | 1.7 | 7.0 | 0.00 | 0.00 | 0.00 | 78 | 1016.0 |
| 20260510045011 | 59 | 250 | 2.6 | 7.8 | 0.00 | 0.00 | 0.00 | 76 | 1015.7 |
| 20260510044511 | 59 | 286 | 4.3 | 10.4 | 0.00 | 0.00 | 0.00 | 75 | 1015.7 |
| 20260510044011 | 60 | 234 | 5.2 | 11.3 | 0.00 | 0.00 | 0.00 | 74 | 1015.6 |
| 20260510043512 | 60 | 265 | 4.3 | 11.3 | 0.00 | 0.00 | 0.00 | 73 | 1015.6 |
| 20260510043010 | 60 | 240 | 3.5 | 10.4 | 0.00 | 0.00 | 0.00 | 73 | 1015.6 |
| 20260510042511 | 61 | 279 | 3.5 | 10.4 | 0.00 | 0.00 | 0.00 | 72 | 1015.6 |
| 20260510042012 | 61 | 209 | 3.5 | 9.6 | 0.00 | 0.00 | 0.00 | 71 | 1015.6 |
| 20260510041514 | 62 | 217 | 2.6 | 9.6 | 0.00 | 0.00 | 0.00 | 70 | 1015.4 |
| 20260510041509 | 62 | 222 | 3.5 | 9.6 | 0.00 | 0.00 | 0.00 | 70 | 1015.5 |
| 20260510040513 | 62 | 257 | 2.6 | 9.6 | 0.00 | 0.00 | 0.00 | 68 | 1015.2 |
| 20260510040508 | 62 | 215 | 2.6 | 9.6 | 0.00 | 0.00 | 0.00 | 69 | 1015.4 |
| 20260510035515 | 62 | 232 | 2.6 | 6.1 | 0.00 | 0.00 | 0.00 | 68 | 1015.0 |
| 20260510035511 | 62 | 223 | 2.6 | 9.6 | 0.00 | 0.00 | 0.00 | 68 | 1015.2 |
| 20260510034509 | 63 | 242 | 1.7 | 6.1 | 0.00 | 0.00 | 0.00 | 68 | 1015.0 |
| 20260510034015 | 63 | 244 | 1.7 | 7.8 | 0.00 | 0.00 | 0.00 | 67 | 1014.9 |
| 20260510034009 | 63 | 213 | 1.7 | 7.8 | 0.00 | 0.00 | 0.00 | 67 | 1014.9 |
| 20260510033007 | 63 | 263 | 1.7 | 7.0 | 0.00 | 0.00 | 0.00 | 67 | 1014.8 |
| 20260510032508 | 64 | 227 | 1.7 | 6.1 | 0.00 | 0.00 | 0.00 | 67 | 1014.8 |
| 20260510032006 | 64 | 248 | 1.7 | 6.1 | 0.00 | 0.00 | 0.00 | 66 | 1014.8 |
| 20260510031506 | 64 | 259 | 1.7 | 6.1 | 0.00 | 0.00 | 0.00 | 65 | 1014.8 |
| 20260510031007 | 64 | 270 | 0.9 | 6.1 | 0.00 | 0.00 | 0.00 | 65 | 1014.8 |
| 20260510030507 | 65 | 242 | 0.9 | 2.6 | 0.00 | 0.00 | 0.00 | 65 | 1014.8 |
| 20260510030006 | 65 | 241 | 0.9 | 2.6 | 0.00 | 0.00 | 0.00 | 65 | 1014.8 |
| 20260510025508 | 65 | 257 | 0.9 | 7.0 | 0.00 | 0.00 | 0.00 | 64 | 1014.7 |
| 20260510025007 | 65 | 198 | 0.9 | 7.0 | 0.00 | 0.00 | 0.00 | 63 | 1014.7 |
| 20260510024511 | 66 | 250 | 0.9 | 6.1 | 0.00 | 0.00 | 0.00 | 62 | 1014.7 |
| 20260510024506 | 66 | 240 | 1.7 | 5.2 | 0.00 | 0.00 | 0.00 | 63 | 1014.8 |
| 20260510023506 | 67 | 254 | 0.9 | 6.1 | 0.00 | 0.00 | 0.00 | 61 | 1014.7 |
| 20260510023007 | 67 | 271 | 1.7 | 6.1 | 0.00 | 0.00 | 0.00 | 61 | 1014.7 |
| 20260510022506 | 67 | 244 | 1.7 | 4.3 | 0.00 | 0.00 | 0.00 | 61 | 1014.6 |
| 20260510022007 | 68 | 252 | 1.7 | 5.2 | 0.00 | 0.00 | 0.00 | 60 | 1014.5 |
| 20260510021512 | 68 | 342 | 1.7 | 5.2 | 0.00 | 0.00 | 0.00 | 60 | 1014.6 |
| 20260510021508 | 68 | 260 | 1.7 | 5.2 | 0.00 | 0.00 | 0.00 | 60 | 1014.5 |
| 20260510021122 | 69 | 255 | 1.7 | 7.8 | 0.00 | 0.00 | 0.00 | 58 | 1014.6 |
| 20260510020006 | 69 | 243 | 0.9 | 7.8 | 0.00 | 0.00 | 0.00 | 59 | 1014.6 |
| 20260510015506 | 69 | 212 | 1.7 | 5.2 | 0.00 | 0.00 | 0.00 | 58 | 1014.5 |
| 20260510015012 | 70 | 242 | 1.7 | 6.1 | 0.00 | 0.00 | 0.00 | 53 | 1014.6 |
| 20260510015006 | 70 | 248 | 1.7 | 5.2 | 0.00 | 0.00 | 0.00 | 53 | 1014.6 |
| 20260510014006 | 71 | 243 | 1.7 | 6.1 | 0.00 | 0.00 | 0.00 | 53 | 1014.5 |
| 20260510013508 | 72 | 263 | 1.7 | 6.1 | 0.00 | 0.00 | 0.00 | 53 | 1014.6 |
| 20260510013007 | 73 | 226 | 1.7 | 7.0 | 0.00 | 0.00 | 0.00 | 51 | 1014.6 |
| 20260510012508 | 74 | 235 | 1.7 | 7.0 | 0.00 | 0.00 | 0.00 | 51 | 1014.6 |
| 20260510012006 | 75 | 242 | 1.7 | 7.0 | 0.00 | 0.00 | 0.00 | 50 | 1014.6 |
| 20260510011507 | 76 | 209 | 0.9 | 7.0 | 0.00 | 0.00 | 0.00 | 52 | 1014.6 |
| 20260510011006 | 77 | 248 | 0.9 | 4.3 | 0.00 | 0.00 | 0.00 | 52 | 1014.6 |
| 20260510010507 | 77 | 309 | 1.7 | 6.1 | 0.00 | 0.00 | 0.00 | 49 | 1014.6 |
| 20260510010006 | 77 | 292 | 1.7 | 6.1 | 0.00 | 0.00 | 0.00 | 49 | 1014.6 |
| 20260510005508 | 78 | 219 | 0.9 | 4.3 | 0.00 | 0.00 | 0.00 | 47 | 1014.6 |
| 20260510005006 | 78 | 319 | 0.9 | 1.7 | 0.00 | 0.00 | 0.00 | 45 | 1014.6 |
| 20260510004506 | 78 | 321 | 0.9 | 1.7 | 0.00 | 0.00 | 0.00 | 42 | 1014.6 |
| 20260510004006 | 78 | 222 | 0.9 | 2.6 | 0.00 | 0.00 | 0.00 | 42 | 1014.6 |
| 20260510003508 | 78 | 42 | 0.9 | 2.6 | 0.00 | 0.00 | 0.00 | 46 | 1014.5 |
| 20260510003006 | 78 | 355 | 0.9 | 2.6 | 0.00 | 0.00 | 0.00 | 45 | 1014.5 |
| 20260510002506 | 77 | 15 | 0.9 | 2.6 | 0.00 | 0.00 | 0.00 | 44 | 1014.5 |
| 20260510002008 | 77 | 5 | 0.9 | 2.6 | 0.00 | 0.00 | 0.00 | 47 | 1014.6 |
| 20260510001512 | 77 | 207 | 0.9 | 3.5 | 0.00 | 0.00 | 0.00 | 46 | 1014.8 |
| 20260510001507 | 77 | 5 | 0.9 | 3.5 | 0.00 | 0.00 | 0.00 | 43 | 1014.7 |
| 20260510001005 | 77 | 44 | 0.9 | 3.5 | 0.00 | 0.00 | 0.00 | 46 | 1014.8 |
| 20260510000005 | 77 | 5 | 0.9 | 3.5 | 0.00 | 0.00 | 0.00 | 47 | 1014.8 |
| 20260509235504 | 77 | 199 | 0.9 | 3.5 | 0.00 | 0.00 | 0.00 | 44 | 1014.8 |
| 20260509235010 | 76 | 11 | 1.7 | 3.5 | 0.00 | 0.00 | 0.00 | 45 | 1014.9 |
| 20260509235004 | 77 | 11 | 1.7 | 3.5 | 0.00 | 0.00 | 0.00 | 48 | 1014.9 |
| 20260509234617 | 77 | 13 | 1.7 | 3.5 | 0.00 | 0.00 | 0.00 | 48 | 1015.0 |
| 20260509233505 | 77 | 36 | 1.7 | 2.6 | 0.00 | 0.00 | 0.00 | 46 | 1015.0 |
| 20260509233004 | 78 | 332 | 1.7 | 3.5 | 0.00 | 0.00 | 0.00 | 43 | 1015.0 |
| 20260509232502 | 78 | 16 | 1.7 | 3.5 | 0.00 | 0.00 | 0.00 | 41 | 1015.0 |
| 20260509232000 | 78 | 11 | 0.9 | 2.6 | 0.00 | 0.00 | 0.00 | 42 | 1015.2 |
| 20260509231457 | 78 | 5 | 0.9 | 3.5 | 0.00 | 0.00 | 0.00 | 42 | 1015.2 |
| 20260509230956 | 78 | 78 | 0.9 | 3.5 | 0.00 | 0.00 | 0.00 | 44 | 1015.3 |
| 20260509230456 | 77 | 198 | 0.9 | 3.5 | 0.00 | 0.00 | 0.00 | 44 | 1015.4 |
| 20260509225958 | 77 | 309 | 0.9 | 3.5 | 0.00 | 0.00 | 0.00 | 44 | 1015.5 |
| 20260509225454 | 77 | 27 | 0.9 | 3.5 | 0.00 | 0.00 | 0.00 | 38 | 1015.5 |
| 20260509224954 | 76 | 332 | 1.7 | 2.6 | 0.00 | 0.00 | 0.00 | 44 | 1015.5 |
| 20260509224454 | 76 | 337 | 1.7 | 2.6 | 0.00 | 0.00 | 0.00 | 39 | 1015.6 |
| 20260509223954 | 76 | 318 | 1.7 | 2.6 | 0.00 | 0.00 | 0.00 | 43 | 1015.7 |
| 20260509223452 | 77 | 32 | 0.9 | 3.5 | 0.00 | 0.00 | 0.00 | 41 | 1015.7 |
| 20260509222952 | 76 | 19 | 0.9 | 3.5 | 0.00 | 0.00 | 0.00 | 44 | 1015.8 |
| 20260509222454 | 76 | 5 | 1.7 | 3.5 | 0.00 | 0.00 | 0.00 | 43 | 1015.8 |
| 20260509222108 | 76 | 290 | 0.9 | 3.5 | 0.00 | 0.00 | 0.00 | 46 | 1016.1 |
| 20260509221958 | 76 | 298 | 0.9 | 4.3 | 0.00 | 0.00 | 0.00 | 42 | 1016.0 |
| 20260509221953 | 76 | 305 | 1.7 | 4.3 | 0.00 | 0.00 | 0.00 | 45 | 1015.9 |
| 20260509220454 | 76 | 322 | 1.7 | 3.5 | 0.00 | 0.00 | 0.00 | 44 | 1016.2 |
| 20260509215953 | 76 | 54 | 0.9 | 3.5 | 0.00 | 0.00 | 0.00 | 46 | 1016.4 |
| 20260509215453 | 76 | 22 | 0.9 | 2.6 | 0.00 | 0.00 | 0.00 | 49 | 1016.4 |
| 20260509214956 | 75 | 332 | 1.7 | 6.1 | 0.00 | 0.00 | 0.00 | 42 | 1016.7 |
| 20260509214952 | 76 | 79 | 0.9 | 3.5 | 0.00 | 0.00 | 0.00 | 46 | 1016.6 |
| 20260509213950 | 75 | 10 | 1.7 | 6.1 | 0.00 | 0.00 | 0.00 | 43 | 1016.8 |
| 20260509213450 | 75 | 9 | 1.7 | 3.5 | 0.00 | 0.00 | 0.00 | 48 | 1016.9 |
| 20260509212951 | 75 | 5 | 0.9 | 3.5 | 0.00 | 0.00 | 0.00 | 44 | 1017.0 |
| 20260509212450 | 74 | 335 | 0.9 | 3.5 | 0.00 | 0.00 | 0.00 | 50 | 1017.1 |
| 20260509211950 | 74 | 268 | 0.9 | 1.7 | 0.00 | 0.00 | 0.00 | 44 | 1017.1 |
| 20260509211450 | 74 | 163 | 0.9 | 1.7 | 0.00 | 0.00 | 0.00 | 51 | 1017.2 |
| 20260509210950 | 73 | 78 | 0.9 | 3.5 | 0.00 | 0.00 | 0.00 | 47 | 1017.3 |
| 20260509210450 | 73 | 71 | 1.7 | 3.5 | 0.00 | 0.00 | 0.00 | 50 | 1017.4 |
| 20260509205950 | 73 | 338 | 1.7 | 3.5 | 0.00 | 0.00 | 0.00 | 55 | 1017.5 |
| 20260509205448 | 73 | 159 | 0.9 | 3.5 | 0.00 | 0.00 | 0.00 | 50 | 1017.5 |
| 20260509204948 | 73 | 239 | 0.9 | 3.5 | 0.00 | 0.00 | 0.00 | 50 | 1017.5 |
| 20260509204448 | 72 | 59 | 0.9 | 1.7 | 0.00 | 0.00 | 0.00 | 55 | 1017.6 |
| 20260509203948 | 72 | 58 | 0.9 | 2.6 | 0.00 | 0.00 | 0.00 | 48 | 1017.6 |
| 20260509203448 | 72 | 30 | 0.9 | 2.6 | 0.00 | 0.00 | 0.00 | 55 | 1017.7 |
| 20260509202952 | 71 | 244 | 0.9 | 3.5 | 0.00 | 0.00 | 0.00 | 52 | 1017.8 |
| 20260509202948 | 72 | 64 | 0.9 | 2.6 | 0.00 | 0.00 | 0.00 | 54 | 1017.8 |
| 20260509201948 | 71 | 142 | 0.0 | 3.5 | 0.00 | 0.00 | 0.00 | 50 | 1017.9 |
| 20260509201449 | 71 | 294 | 0.9 | 3.5 | 0.00 | 0.00 | 0.00 | 51 | 1017.9 |
| 20260509200948 | 71 | 5 | 0.9 | 3.5 | 0.00 | 0.00 | 0.00 | 53 | 1018.0 |
| 20260509200446 | 70 | 24 | 0.9 | 2.6 | 0.00 | 0.00 | 0.00 | 64 | 1018.2 |
| 20260509195946 | 69 | 231 | 0.9 | 3.5 | 0.00 | 0.00 | 0.00 | 56 | 1018.3 |
| 20260509195447 | 69 | 325 | 1.7 | 3.5 | 0.00 | 0.00 | 0.00 | 56 | 1018.4 |
| 20260509194946 | 69 | 347 | 1.7 | 3.5 | 0.00 | 0.00 | 0.00 | 59 | 1018.4 |
| 20260509194446 | 68 | 13 | 1.7 | 4.3 | 0.00 | 0.00 | 0.00 | 59 | 1018.4 |
| 20260509193947 | 68 | 16 | 1.7 | 4.3 | 0.00 | 0.00 | 0.00 | 58 | 1018.6 |
| 20260509193450 | 67 | 337 | 1.7 | 4.3 | 0.00 | 0.00 | 0.00 | 59 | 1018.6 |
| 20260509193445 | 67 | 291 | 1.7 | 4.3 | 0.00 | 0.00 | 0.00 | 61 | 1018.7 |
| 20260509192446 | 67 | 272 | 2.6 | 4.3 | 0.00 | 0.00 | 0.00 | 61 | 1018.8 |
| 20260509191944 | 67 | 326 | 1.7 | 4.3 | 0.00 | 0.00 | 0.00 | 63 | 1018.8 |
| 20260509191441 | 67 | 351 | 0.9 | 3.5 | 0.00 | 0.00 | 0.00 | 66 | 1018.9 |
| 20260509190947 | 66 | 200 | 0.9 | 1.7 | 0.00 | 0.00 | 0.00 | 66 | 1019.0 |
| 20260509190942 | 67 | 344 | 0.9 | 3.5 | 0.00 | 0.00 | 0.00 | 65 | 1018.9 |
| 20260509190442 | 67 | 301 | 0.9 | 2.6 | 0.00 | 0.00 | 0.00 | 64 | 1018.9 |
| 20260509185442 | 66 | 288 | 0.9 | 2.6 | 0.00 | 0.00 | 0.00 | 68 | 1019.1 |
| 20260509184942 | 65 | 290 | 0.9 | 4.3 | 0.00 | 0.00 | 0.00 | 67 | 1019.2 |
| 20260509184442 | 65 | 351 | 1.7 | 4.3 | 0.00 | 0.00 | 0.00 | 64 | 1019.2 |
| 20260509183942 | 65 | 5 | 1.7 | 4.3 | 0.00 | 0.00 | 0.00 | 67 | 1019.3 |
| 20260509183442 | 65 | 298 | 1.7 | 4.3 | 0.00 | 0.00 | 0.00 | 63 | 1019.2 |
| 20260509182939 | 66 | 325 | 0.9 | 2.6 | 0.00 | 0.00 | 0.00 | 66 | 1019.2 |
| 20260509182438 | 65 | 162 | 0.9 | 2.6 | 0.00 | 0.00 | 0.00 | 67 | 1019.3 |
| 20260509181938 | 64 | 304 | 0.9 | 4.3 | 0.00 | 0.00 | 0.00 | 67 | 1019.4 |
| 20260509181438 | 64 | 331 | 0.9 | 4.3 | 0.00 | 0.00 | 0.00 | 71 | 1019.4 |
| 20260509180938 | 64 | 246 | 0.9 | 2.6 | 0.00 | 0.00 | 0.00 | 71 | 1019.4 |
| 20260509180436 | 64 | 167 | 0.9 | 2.6 | 0.00 | 0.00 | 0.00 | 71 | 1019.4 |
| 20260509175933 | 64 | 35 | 0.9 | 2.6 | 0.00 | 0.00 | 0.00 | 70 | 1019.5 |
| 20260509175434 | 64 | 12 | 0.9 | 2.6 | 0.00 | 0.00 | 0.00 | 70 | 1019.6 |
| 20260509174939 | 62 | 194 | 0.9 | 2.6 | 0.00 | 0.00 | 0.00 | 72 | 1019.7 |
| 20260509174934 | 63 | 38 | 0.9 | 2.6 | 0.00 | 0.00 | 0.00 | 72 | 1019.7 |
| 20260509174546 | 62 | 257 | 0.9 | 2.6 | 0.00 | 0.00 | 0.00 | 71 | 1019.8 |
| 20260509173431 | 62 | 305 | 1.7 | 3.5 | 0.00 | 0.00 | 0.00 | 73 | 1019.8 |
| 20260509172932 | 61 | 5 | 1.7 | 3.5 | 0.00 | 0.00 | 0.00 | 71 | 1019.9 |
| 20260509172432 | 61 | 312 | 0.9 | 2.6 | 0.00 | 0.00 | 0.00 | 74 | 1020.0 |
| 20260509171929 | 61 | 349 | 0.9 | 2.6 | 0.00 | 0.00 | 0.00 | 73 | 1020.0 |
| 20260509171430 | 61 | 351 | 0.9 | 2.6 | 0.00 | 0.00 | 0.00 | 75 | 1019.9 |
| 20260509170930 | 61 | 188 | 0.9 | 1.7 | 0.00 | 0.00 | 0.00 | 76 | 1020.0 |
| 20260509170428 | 60 | 112 | 0.9 | 2.6 | 0.00 | 0.00 | 0.00 | 76 | 1019.9 |
| 20260509165926 | 60 | 146 | 0.9 | 2.6 | 0.00 | 0.00 | 0.00 | 77 | 1019.9 |
| 20260509165426 | 60 | 178 | 0.0 | 1.7 | 0.00 | 0.00 | 0.00 | 77 | 1020.0 |
| 20260509164930 | 58 | 175 | 0.9 | 2.6 | 0.00 | 0.00 | 0.00 | 78 | 1020.2 |
| 20260509164925 | 59 | 177 | 0.9 | 2.6 | 0.00 | 0.00 | 0.00 | 80 | 1020.2 |
| 20260509163927 | 58 | 176 | 0.9 | 3.5 | 0.00 | 0.00 | 0.00 | 79 | 1020.2 |
| 20260509163427 | 58 | 169 | 0.0 | 3.5 | 0.00 | 0.00 | 0.00 | 78 | 1020.2 |
| 20260509162925 | 58 | 123 | 0.0 | 3.5 | 0.00 | 0.00 | 0.00 | 81 | 1020.3 |
| 20260509162425 | 58 | 123 | 0.0 | 3.5 | 0.00 | 0.00 | 0.00 | 80 | 1020.3 |
| 20260509161927 | 57 | 159 | 0.9 | 2.6 | 0.00 | 0.00 | 0.00 | 82 | 1020.4 |
| 20260509161427 | 57 | 21 | 0.9 | 2.6 | 0.00 | 0.00 | 0.00 | 83 | 1020.4 |
| 20260509160925 | 57 | 60 | 0.9 | 1.7 | 0.00 | 0.00 | 0.00 | 83 | 1020.5 |
| 20260509160426 | 56 | 53 | 0.9 | 1.7 | 0.00 | 0.00 | 0.00 | 86 | 1020.4 |
| 20260509155927 | 56 | 44 | 0.0 | 1.7 | 0.00 | 0.00 | 0.00 | 87 | 1020.6 |
| 20260509155431 | 54 | 177 | 0.9 | 3.5 | 0.00 | 0.00 | 0.00 | 88 | 1020.7 |
| 20260509155425 | 55 | 177 | 0.9 | 2.6 | 0.00 | 0.00 | 0.00 | 86 | 1020.7 |
| 20260509154926 | 55 | 177 | 0.9 | 2.6 | 0.00 | 0.00 | 0.00 | 88 | 1020.7 |
| 20260509153927 | 54 | 178 | 0.9 | 3.5 | 0.00 | 0.00 | 0.00 | 89 | 1020.6 |
| 20260509153425 | 53 | 173 | 0.0 | 2.6 | 0.00 | 0.00 | 0.00 | 89 | 1020.8 |
| 20260509152931 | 52 | 162 | 0.0 | 1.7 | 0.00 | 0.00 | 0.00 | 91 | 1020.7 |
| 20260509152927 | 53 | 173 | 0.0 | 2.6 | 0.00 | 0.00 | 0.00 | 90 | 1020.7 |
| 20260509151925 | 51 | 162 | 0.0 | 1.7 | 0.00 | 0.00 | 0.00 | 91 | 1020.8 |
| 20260509151427 | 51 | 162 | 0.0 | 1.7 | 0.00 | 0.00 | 0.00 | 92 | 1020.8 |
| 20260509150926 | 51 | 162 | 0.0 | 1.7 | 0.00 | 0.00 | 0.00 | 92 | 1020.8 |
| 20260509150433 | 49 | 162 | 0.0 | 0.9 | 0.00 | 0.00 | 0.00 | 94 | 1021.1 |
| 20260509150426 | 50 | 162 | 0.0 | 1.7 | 0.00 | 0.00 | 0.00 | 93 | 1020.9 |
| 20260509145927 | 50 | 162 | 0.0 | 1.7 | 0.00 | 0.00 | 0.00 | 93 | 1021.1 |
| 20260509144925 | 49 | 162 | 0.0 | 0.9 | 0.00 | 0.00 | 0.00 | 94 | 1021.1 |
| 20260509144426 | 48 | 162 | 0.0 | 1.7 | 0.00 | 0.00 | 0.00 | 94 | 1021.1 |
| 20260509143928 | 48 | 162 | 0.0 | 1.7 | 0.00 | 0.00 | 0.00 | 95 | 1021.1 |
| 20260509143924 | 48 | 162 | 0.0 | 1.7 | 0.00 | 0.00 | 0.00 | 94 | 1021.1 |
| 20260509142925 | 47 | 173 | 0.0 | 0.9 | 0.00 | 0.00 | 0.00 | 95 | 1021.1 |
| 20260509142423 | 47 | 171 | 0.0 | 0.0 | 0.00 | 0.00 | 0.00 | 95 | 1021.1 |
| 20260509141921 | 47 | 170 | 0.0 | 0.0 | 0.00 | 0.00 | 0.00 | 95 | 1020.9 |
| 20260509141422 | 47 | 170 | 0.0 | 0.0 | 0.00 | 0.00 | 0.00 | 95 | 1020.8 |
| 20260509140922 | 46 | 170 | 0.0 | 0.0 | 0.00 | 0.00 | 0.00 | 95 | 1020.8 |
| 20260509140422 | 46 | 170 | 0.0 | 0.0 | 0.00 | 0.00 | 0.00 | 95 | 1020.6 |
| 20260509135923 | 46 | 171 | 0.0 | 0.0 | 0.00 | 0.00 | 0.00 | 95 | 1020.7 |
| 20260509135427 | 45 | 170 | 0.0 | 1.7 | 0.00 | 0.00 | 0.00 | 95 | 1020.8 |
| 20260509135422 | 46 | 170 | 0.0 | 0.0 | 0.00 | 0.00 | 0.00 | 95 | 1020.7 |
| 20260509134421 | 45 | 170 | 0.0 | 1.7 | 0.00 | 0.00 | 0.00 | 95 | 1020.9 |
| 20260509133921 | 45 | 171 | 0.0 | 1.7 | 0.00 | 0.00 | 0.00 | 94 | 1020.8 |
| 20260509133420 | 45 | 171 | 0.0 | 1.7 | 0.00 | 0.00 | 0.00 | 95 | 1020.7 |
| 20260509132923 | 44 | 180 | 0.0 | 1.7 | 0.00 | 0.00 | 0.00 | 95 | 1020.6 |
| 20260509132919 | 44 | 179 | 0.0 | 1.7 | 0.00 | 0.00 | 0.00 | 95 | 1020.6 |
| 20260509131919 | 44 | 180 | 0.0 | 1.7 | 0.00 | 0.00 | 0.00 | 94 | 1020.6 |
| 20260509131420 | 44 | 180 | 0.0 | 1.7 | 0.00 | 0.00 | 0.00 | 94 | 1020.7 |
| 20260509130921 | 43 | 180 | 0.0 | 1.7 | 0.00 | 0.00 | 0.00 | 94 | 1020.7 |
| 20260509130423 | 43 | 180 | 0.0 | 0.0 | 0.00 | 0.00 | 0.00 | 93 | 1020.8 |
| 20260509130419 | 43 | 180 | 0.0 | 1.7 | 0.00 | 0.00 | 0.00 | 93 | 1020.7 |
| 20260509125419 | 43 | 180 | 0.0 | 1.7 | 0.00 | 0.00 | 0.00 | 93 | 1020.8 |
| 20260509124919 | 43 | 180 | 0.0 | 1.7 | 0.00 | 0.00 | 0.00 | 93 | 1020.8 |
| 20260509124417 | 43 | 180 | 0.0 | 0.0 | 0.00 | 0.00 | 0.00 | 92 | 1020.8 |
| 20260509123921 | 44 | 180 | 0.0 | 1.7 | 0.00 | 0.00 | 0.00 | 92 | 1020.9 |
| 20260509123917 | 44 | 180 | 0.0 | 0.0 | 0.00 | 0.00 | 0.00 | 92 | 1020.8 |
| 20260509122921 | 44 | 180 | 0.0 | 1.7 | 0.00 | 0.00 | 0.00 | 93 | 1020.9 |
| 20260509122915 | 44 | 180 | 0.0 | 1.7 | 0.00 | 0.00 | 0.00 | 93 | 1020.9 |
| 20260509121915 | 44 | 180 | 0.9 | 1.7 | 0.00 | 0.00 | 0.00 | 94 | 1020.9 |
| 20260509121415 | 44 | 173 | 0.0 | 1.7 | 0.00 | 0.00 | 0.00 | 94 | 1020.9 |
| 20260509120916 | 44 | 172 | 0.9 | 1.7 | 0.00 | 0.00 | 0.00 | 94 | 1021.1 |
| 20260509120416 | 44 | 171 | 0.0 | 1.7 | 0.00 | 0.00 | 0.00 | 93 | 1021.1 |
| 20260509115915 | 44 | 171 | 0.0 | 0.0 | 0.00 | 0.00 | 0.00 | 93 | 1021.1 |
| 20260509115413 | 44 | 171 | 0.0 | 0.0 | 0.00 | 0.00 | 0.00 | 94 | 1021.3 |
| 20260509114913 | 44 | 171 | 0.0 | 0.9 | 0.00 | 0.00 | 0.00 | 92 | 1021.2 |
| 20260509114413 | 45 | 171 | 0.0 | 0.9 | 0.00 | 0.00 | 0.00 | 92 | 1021.1 |
| 20260509113919 | 45 | 171 | 0.0 | 1.7 | 0.00 | 0.00 | 0.00 | 93 | 1021.2 |
| 20260509113913 | 45 | 171 | 0.0 | 1.7 | 0.00 | 0.00 | 0.00 | 92 | 1021.2 |
| 20260509112912 | 45 | 171 | 0.0 | 1.7 | 0.00 | 0.00 | 0.00 | 94 | 1021.2 |
| 20260509112413 | 45 | 200 | 0.0 | 1.7 | 0.00 | 0.00 | 0.00 | 94 | 1021.2 |
| 20260509111918 | 45 | 188 | 0.0 | 1.7 | 0.00 | 0.00 | 0.00 | 94 | 1021.3 |
| 20260509111914 | 45 | 186 | 0.0 | 1.7 | 0.00 | 0.00 | 0.00 | 94 | 1021.3 |
| 20260509111526 | 45 | 188 | 0.0 | 1.7 | 0.00 | 0.00 | 0.00 | 94 | 1021.2 |
| 20260509110412 | 45 | 188 | 0.0 | 1.7 | 0.00 | 0.00 | 0.00 | 94 | 1021.3 |
| 20260509105911 | 45 | 191 | 0.0 | 1.7 | 0.00 | 0.00 | 0.00 | 94 | 1021.3 |
| 20260509105411 | 44 | 191 | 0.0 | 1.7 | 0.00 | 0.00 | 0.00 | 92 | 1021.3 |
| 20260509104911 | 44 | 191 | 0.0 | 1.7 | 0.00 | 0.00 | 0.00 | 92 | 1021.4 |
| 20260509104411 | 45 | 190 | 0.0 | 1.7 | 0.00 | 0.00 | 0.00 | 92 | 1021.4 |
| 20260509103911 | 45 | 191 | 0.0 | 1.7 | 0.00 | 0.00 | 0.00 | 92 | 1021.5 |
| 20260509103418 | 46 | 191 | 0.0 | 0.0 | 0.00 | 0.00 | 0.00 | 92 | 1021.7 |
| 20260509103410 | 45 | 190 | 0.0 | 0.9 | 0.00 | 0.00 | 0.00 | 92 | 1021.5 |
| 20260509102910 | 45 | 191 | 0.0 | 0.9 | 0.00 | 0.00 | 0.00 | 93 | 1021.6 |
| 20260509102411 | 45 | 191 | 0.0 | 0.9 | 0.00 | 0.00 | 0.00 | 92 | 1021.6 |
| 20260509101414 | 46 | 191 | 0.0 | 0.0 | 0.00 | 0.00 | 0.00 | 93 | 1021.8 |
| 20260509101408 | 46 | 191 | 0.0 | 0.0 | 0.00 | 0.00 | 0.00 | 92 | 1021.7 |
| 20260509100909 | 46 | 191 | 0.0 | 0.0 | 0.00 | 0.00 | 0.00 | 93 | 1021.7 |
| 20260509095908 | 46 | 191 | 0.0 | 0.0 | 0.00 | 0.00 | 0.00 | 93 | 1021.7 |
| 20260509095408 | 46 | 191 | 0.0 | 0.0 | 0.00 | 0.00 | 0.00 | 93 | 1021.8 |
| 20260509094909 | 46 | 191 | 0.0 | 0.0 | 0.00 | 0.00 | 0.00 | 93 | 1021.7 |
| 20260509094409 | 45 | 191 | 0.0 | 0.0 | 0.00 | 0.00 | 0.00 | 92 | 1021.8 |
| 20260509093909 | 46 | 191 | 0.0 | 1.7 | 0.00 | 0.00 | 0.00 | 91 | 1021.8 |
| 20260509093409 | 46 | 191 | 0.0 | 1.7 | 0.00 | 0.00 | 0.00 | 92 | 1021.8 |
| 20260509092909 | 46 | 191 | 0.0 | 1.7 | 0.00 | 0.00 | 0.00 | 91 | 1021.9 |
| 20260509092406 | 46 | 191 | 0.0 | 1.7 | 0.00 | 0.00 | 0.00 | 91 | 1021.9 |
| 20260509091907 | 46 | 191 | 0.0 | 0.9 | 0.00 | 0.00 | 0.00 | 90 | 1021.8 |
| 20260509091406 | 47 | 191 | 0.0 | 1.7 | 0.00 | 0.00 | 0.00 | 90 | 1021.9 |
| 20260509090911 | 47 | 191 | 0.0 | 1.7 | 0.00 | 0.00 | 0.00 | 91 | 1022.0 |
| 20260509090907 | 47 | 191 | 0.0 | 1.7 | 0.00 | 0.00 | 0.00 | 90 | 1022.0 |
| 20260509085907 | 47 | 190 | 0.0 | 1.7 | 0.00 | 0.00 | 0.00 | 91 | 1022.0 |
| 20260509085407 | 47 | 190 | 0.0 | 1.7 | 0.00 | 0.00 | 0.00 | 90 | 1022.0 |
| 20260509084912 | 48 | 193 | 0.0 | 1.7 | 0.00 | 0.00 | 0.00 | 90 | 1022.0 |
| 20260509084907 | 47 | 192 | 0.0 | 1.7 | 0.00 | 0.00 | 0.00 | 89 | 1022.0 |
| 20260509083912 | 48 | 192 | 0.0 | 1.7 | 0.00 | 0.00 | 0.00 | 90 | 1022.0 |
| 20260509083906 | 48 | 192 | 0.0 | 0.9 | 0.00 | 0.00 | 0.00 | 90 | 1022.0 |
| 20260509082907 | 48 | 192 | 0.0 | 1.7 | 0.00 | 0.00 | 0.00 | 91 | 1022.1 |
| 20260509082408 | 49 | 192 | 0.9 | 1.7 | 0.00 | 0.00 | 0.00 | 90 | 1022.1 |
| 20260509081904 | 49 | 192 | 0.9 | 1.7 | 0.00 | 0.00 | 0.00 | 91 | 1022.1 |
| 20260509081406 | 49 | 195 | 0.0 | 1.7 | 0.00 | 0.00 | 0.00 | 90 | 1022.2 |
| 20260509080903 | 49 | 275 | 0.0 | 0.9 | 0.00 | 0.00 | 0.00 | 90 | 1022.1 |
| 20260509080402 | 49 | 296 | 0.0 | 0.0 | 0.00 | 0.00 | 0.00 | 90 | 1022.2 |
| 20260509075908 | 49 | 296 | 0.0 | 0.0 | 0.00 | 0.00 | 0.00 | 89 | 1022.1 |
| 20260509075902 | 49 | 296 | 0.0 | 0.0 | 0.00 | 0.00 | 0.00 | 88 | 1022.2 |
| 20260509074903 | 49 | 296 | 0.0 | 0.0 | 0.00 | 0.00 | 0.00 | 90 | 1022.2 |
| 20260509074403 | 49 | 296 | 0.0 | 1.7 | 0.00 | 0.00 | 0.00 | 89 | 1022.2 |
| 20260509073900 | 49 | 296 | 0.0 | 1.7 | 0.00 | 0.00 | 0.00 | 89 | 1022.2 |
| 20260509073400 | 49 | 295 | 0.0 | 0.0 | 0.00 | 0.00 | 0.00 | 89 | 1022.2 |
| 20260509072902 | 50 | 296 | 0.0 | 1.7 | 0.00 | 0.00 | 0.00 | 88 | 1022.2 |
| 20260509072401 | 50 | 295 | 0.0 | 1.7 | 0.00 | 0.00 | 0.00 | 88 | 1022.2 |
| 20260509071900 | 50 | 298 | 0.0 | 1.7 | 0.00 | 0.00 | 0.00 | 89 | 1022.3 |
| 20260509071401 | 50 | 262 | 0.0 | 1.7 | 0.00 | 0.00 | 0.00 | 88 | 1022.3 |
| 20260509070906 | 50 | 304 | 0.0 | 2.6 | 0.00 | 0.00 | 0.00 | 88 | 1022.3 |
| 20260509070901 | 50 | 304 | 0.0 | 2.6 | 0.00 | 0.00 | 0.00 | 88 | 1022.3 |
| 20260509065900 | 50 | 252 | 0.0 | 2.6 | 0.00 | 0.00 | 0.00 | 88 | 1022.2 |
| 20260509065401 | 51 | 248 | 0.0 | 2.6 | 0.00 | 0.00 | 0.00 | 87 | 1022.2 |